Precipitable_Water
0.33 0.31 0.31 0.32 0.33 0.33 0.34 0.35 0.37 0.38 0.39 0.40 0.40 0.39 0.38 0.38 0.38 0.38 0.38 0.40 0.40 0.39 0.39 0.38 0.38 0.39 0.38 0.41 0.42 0.41 0.36 0.31 0.32 0.32 0.30 0.32 0.34 0.35 0.35 0.37 0.38 0.38 0.36 0.30 0.27 0.28 0.28 0.29 0.30 0.33 0.33 0.33 0.31 0.30 0.34 0.34 0.36 0.32 0.24 0.22 0.20 0.23 0.22 0.22 0.22 0.24 0.26 0.25 0.27 0.28 0.28 0.26 0.24 0.27 0.29 0.33 0.31 0.30 0.31 0.31 0.33 0.35 0.35 0.35 0.37 0.40 0.44 0.46
0.34 0.33 0.34 0.35 0.36 0.36 0.37 0.38 0.38 0.39 0.39 0.40 0.40 0.40 0.39 0.39 0.38 0.38 0.37 0.37 0.37 0.37 0.36 0.36 0.35 0.35 0.37 0.38 0.40 0.41 0.35 0.30 0.29 0.29 0.28 0.35 0.36 0.37 0.37 0.38 0.38 0.37 0.34 0.26 0.25 0.26 0.26 0.27 0.29 0.31 0.31 0.28 0.30 0.27 0.32 0.28 0.32 0.25 0.23 0.22 0.19 0.24 0.24 0.25 0.23 0.23 0.24 0.24 0.26 0.26 0.26 0.24 0.23 0.25 0.29 0.27 0.27 0.28 0.28 0.28 0.30 0.30 0.31 0.34 0.37 0.40 0.43 0.45
0.35 0.36 0.38 0.39 0.40 0.39 0.39 0.39 0.39 0.39 0.39 0.39 0.39 0.40 0.40 0.39 0.39 0.38 0.38 0.37 0.36 0.35 0.34 0.33 0.35 0.35 0.35 0.37 0.38 0.37 0.34 0.29 0.29 0.26 0.29 0.34 0.34 0.34 0.36 0.36 0.36 0.37 0.30 0.25 0.26 0.27 0.26 0.26 0.28 0.27 0.29 0.24 0.24 0.23 0.28 0.26 0.28 0.27 0.21 0.17 0.16 0.20 0.22 0.23 0.22 0.22 0.25 0.25 0.24 0.24 0.25 0.24 0.26 0.27 0.31 0.27 0.26 0.28 0.25 0.26 0.28 0.27 0.28 0.31 0.35 0.38 0.41 0.42
0.41 0.41 0.40 0.41 0.41 0.41 0.40 0.40 0.40 0.40 0.40 0.40 0.40 0.40 0.39 0.40 0.40 0.40 0.39 0.39 0.37 0.37 0.35 0.35 0.34 0.35 0.37 0.38 0.38 0.38 0.31 0.30 0.26 0.27 0.32 0.33 0.34 0.35 0.35 0.35 0.35 0.35 0.32 0.30 0.29 0.27 0.29 0.27 0.25 0.23 0.23 0.20 0.20 0.23 0.23 0.24 0.23 0.25 0.21 0.18 0.17 0.19 0.17 0.20 0.22 0.22 0.23 0.24 0.23 0.23 0.24 0.22 0.25 0.26 0.27 0.26 0.23 0.23 0.24 0.27 0.27 0.27 0.28 0.30 0.32 0.35 0.37 0.39
0.42 0.42 0.42 0.42 0.42 0.42 0.42 0.43 0.43 0.42 0.42 0.43 0.43 0.43 0.44 0.43 0.42 0.42 0.43 0.43 0.42 0.41 0.39 0.38 0.37 0.39 0.41 0.42 0.39 0.37 0.32 0.27 0.25 0.29 0.33 0.35 0.36 0.36 0.36 0.35 0.36 0.35 0.32 0.31 0.30 0.27 0.26 0.24 0.24 0.22 0.21 0.19 0.20 0.21 0.21 0.23 0.24 0.23 0.20 0.21 0.20 0.20 0.18 0.22 0.23 0.24 0.24 0.25 0.23 0.24 0.22 0.22 0.26 0.26 0.25 0.25 0.21 0.22 0.24 0.26 0.27 0.27 0.28 0.29 0.29 0.30 0.32 0.33
0.43 0.44 0.44 0.43 0.43 0.43 0.44 0.44 0.44 0.44 0.45 0.45 0.46 0.45 0.45 0.47 0.48 0.47 0.47 0.46 0.46 0.44 0.45 0.43 0.44 0.44 0.48 0.46 0.42 0.37 0.32 0.20 0.32 0.34 0.37 0.37 0.37 0.37 0.37 0.36 0.37 0.34 0.33 0.28 0.25 0.24 0.23 0.21 0.21 0.19 0.18 0.18 0.18 0.17 0.20 0.22 0.24 0.18 0.21 0.21 0.21 0.22 0.20 0.23 0.23 0.24 0.24 0.23 0.22 0.22 0.23 0.24 0.23 0.23 0.24 0.24 0.22 0.24 0.26 0.27 0.28 0.29 0.30 0.31 0.32 0.32 0.32 0.31
0.46 0.46 0.45 0.44 0.43 0.43 0.43 0.42 0.43 0.45 0.45 0.47 0.48 0.51 0.51 0.49 0.48 0.47 0.45 0.47 0.45 0.46 0.46 0.43 0.43 0.45 0.46 0.50 0.42 0.36 0.30 0.31 0.36 0.38 0.38 0.38 0.39 0.38 0.38 0.35 0.34 0.31 0.30 0.27 0.26 0.24 0.23 0.21 0.20 0.19 0.18 0.18 0.19 0.19 0.21 0.20 0.23 0.20 0.19 0.21 0.21 0.23 0.21 0.23 0.23 0.24 0.24 0.23 0.22 0.24 0.25 0.23 0.23 0.20 0.24 0.23 0.24 0.25 0.26 0.28 0.29 0.29 0.30 0.31 0.31 0.31 0.31 0.31
0.45 0.45 0.45 0.43 0.43 0.44 0.44 0.45 0.43 0.42 0.45 0.47 0.49 0.51 0.51 0.50 0.49 0.48 0.45 0.43 0.41 0.42 0.41 0.42 0.41 0.43 0.43 0.42 0.32 0.29 0.30 0.29 0.35 0.39 0.38 0.38 0.37 0.36 0.35 0.33 0.31 0.30 0.29 0.27 0.26 0.25 0.25 0.22 0.20 0.22 0.19 0.18 0.20 0.20 0.21 0.20 0.21 0.20 0.19 0.22 0.22 0.23 0.24 0.24 0.25 0.24 0.24 0.24 0.25 0.24 0.22 0.22 0.23 0.22 0.24 0.23 0.25 0.26 0.27 0.28 0.29 0.29 0.30 0.31 0.31 0.31 0.31 0.31
0.44 0.44 0.42 0.42 0.44 0.46 0.47 0.45 0.44 0.45 0.46 0.48 0.50 0.52 0.53 0.52 0.50 0.48 0.44 0.40 0.38 0.38 0.40 0.41 0.41 0.43 0.43 0.39 0.33 0.29 0.28 0.35 0.39 0.39 0.38 0.37 0.37 0.36 0.34 0.30 0.32 0.30 0.30 0.29 0.28 0.27 0.25 0.23 0.22 0.22 0.18 0.20 0.24 0.22 0.22 0.19 0.18 0.21 0.21 0.22 0.23 0.23 0.24 0.25 0.25 0.25 0.25 0.25 0.25 0.23 0.23 0.24 0.24 0.25 0.23 0.24 0.25 0.27 0.28 0.29 0.29 0.29 0.29 0.29 0.30 0.30 0.31 0.31
0.42 0.41 0.41 0.42 0.45 0.46 0.45 0.44 0.45 0.45 0.46 0.48 0.50 0.51 0.51 0.50 0.49 0.45 0.39 0.37 0.39 0.41 0.41 0.43 0.45 0.41 0.40 0.32 0.30 0.25 0.29 0.37 0.37 0.37 0.36 0.36 0.36 0.35 0.33 0.31 0.30 0.28 0.27 0.27 0.26 0.25 0.23 0.23 0.23 0.24 0.24 0.23 0.25 0.23 0.25 0.21 0.19 0.22 0.22 0.22 0.22 0.24 0.24 0.25 0.24 0.25 0.26 0.25 0.25 0.22 0.22 0.23 0.26 0.25 0.20 0.26 0.27 0.28 0.29 0.29 0.30 0.29 0.29 0.29 0.30 0.30 0.31 0.31
0.41 0.41 0.40 0.43 0.46 0.45 0.44 0.44 0.44 0.44 0.46 0.48 0.48 0.48 0.48 0.47 0.45 0.41 0.36 0.37 0.40 0.42 0.44 0.46 0.47 0.42 0.30 0.28 0.23 0.21 0.32 0.33 0.34 0.34 0.33 0.33 0.31 0.29 0.26 0.27 0.26 0.24 0.24 0.23 0.22 0.24 0.23 0.24 0.24 0.23 0.21 0.19 0.22 0.21 0.21 0.21 0.23 0.22 0.22 0.22 0.23 0.24 0.24 0.25 0.25 0.24 0.25 0.23 0.25 0.23 0.22 0.24 0.25 0.24 0.22 0.25 0.28 0.29 0.28 0.28 0.29 0.29 0.29 0.29 0.30 0.30 0.30 0.30
0.42 0.41 0.42 0.43 0.44 0.44 0.44 0.44 0.44 0.44 0.46 0.46 0.46 0.45 0.44 0.44 0.43 0.39 0.38 0.38 0.39 0.40 0.40 0.38 0.37 0.31 0.28 0.25 0.24 0.24 0.33 0.32 0.33 0.33 0.31 0.30 0.28 0.28 0.28 0.27 0.25 0.24 0.23 0.20 0.22 0.24 0.24 0.24 0.24 0.20 0.16 0.24 0.18 0.21 0.20 0.24 0.22 0.22 0.23 0.19 0.21 0.23 0.22 0.24 0.22 0.23 0.25 0.23 0.26 0.26 0.23 0.22 0.24 0.22 0.26 0.28 0.30 0.30 0.29 0.29 0.28 0.28 0.28 0.28 0.28 0.29 0.29 0.29
0.40 0.40 0.41 0.40 0.39 0.38 0.40 0.41 0.42 0.43 0.43 0.43 0.43 0.43 0.42 0.41 0.40 0.39 0.37 0.37 0.38 0.40 0.41 0.41 0.42 0.38 0.28 0.21 0.24 0.30 0.31 0.32 0.31 0.31 0.30 0.30 0.29 0.30 0.30 0.28 0.27 0.26 0.25 0.23 0.22 0.24 0.26 0.25 0.23 0.19 0.23 0.22 0.22 0.19 0.23 0.24 0.22 0.23 0.21 0.19 0.19 0.19 0.19 0.22 0.24 0.24 0.24 0.25 0.27 0.27 0.18 0.23 0.25 0.27 0.30 0.31 0.31 0.30 0.29 0.28 0.27 0.27 0.27 0.26 0.26 0.26 0.25 0.25
0.35 0.35 0.36 0.34 0.34 0.35 0.37 0.39 0.40 0.42 0.42 0.40 0.39 0.39 0.39 0.38 0.39 0.39 0.39 0.38 0.40 0.41 0.41 0.39 0.34 0.29 0.22 0.20 0.24 0.27 0.29 0.30 0.29 0.27 0.26 0.27 0.25 0.25 0.27 0.27 0.27 0.27 0.27 0.26 0.26 0.28 0.26 0.26 0.24 0.23 0.27 0.22 0.19 0.25 0.21 0.21 0.24 0.18 0.20 0.20 0.17 0.16 0.16 0.22 0.23 0.24 0.22 0.27 0.28 0.28 0.19 0.21 0.25 0.26 0.28 0.28 0.27 0.25 0.23 0.23 0.22 0.22 0.22 0.22 0.22 0.21 0.21 0.21
0.33 0.34 0.34 0.34 0.34 0.37 0.39 0.40 0.40 0.41 0.39 0.38 0.38 0.37 0.38 0.35 0.36 0.37 0.39 0.38 0.42 0.41 0.44 0.39 0.30 0.26 0.18 0.19 0.24 0.26 0.29 0.28 0.25 0.25 0.27 0.24 0.23 0.22 0.23 0.25 0.24 0.25 0.26 0.26 0.25 0.27 0.27 0.25 0.23 0.20 0.20 0.26 0.24 0.19 0.17 0.18 0.20 0.20 0.16 0.14 0.17 0.15 0.18 0.21 0.24 0.24 0.20 0.25 0.28 0.25 0.18 0.19 0.23 0.24 0.24 0.24 0.24 0.23 0.20 0.20 0.20 0.19 0.19 0.18 0.18 0.17 0.17 0.17
0.36 0.36 0.37 0.37 0.38 0.40 0.43 0.42 0.40 0.38 0.37 0.36 0.37 0.38 0.39 0.38 0.37 0.38 0.39 0.41 0.43 0.45 0.39 0.28 0.26 0.22 0.18 0.15 0.19 0.28 0.25 0.21 0.22 0.28 0.29 0.27 0.24 0.21 0.24 0.23 0.24 0.24 0.24 0.23 0.27 0.26 0.25 0.24 0.20 0.21 0.21 0.24 0.21 0.17 0.16 0.16 0.16 0.18 0.15 0.14 0.14 0.16 0.17 0.18 0.21 0.24 0.26 0.24 0.25 0.23 0.18 0.20 0.20 0.23 0.23 0.23 0.22 0.21 0.20 0.19 0.19 0.18 0.17 0.16 0.15 0.15 0.14 0.14
0.37 0.38 0.38 0.40 0.41 0.43 0.45 0.42 0.39 0.38 0.38 0.37 0.36 0.36 0.36 0.37 0.37 0.38 0.38 0.35 0.34 0.37 0.29 0.24 0.26 0.23 0.13 0.22 0.27 0.20 0.19 0.24 0.29 0.28 0.29 0.29 0.27 0.25 0.23 0.21 0.21 0.22 0.24 0.24 0.24 0.24 0.24 0.20 0.22 0.20 0.22 0.20 0.21 0.18 0.13 0.12 0.12 0.13 0.17 0.14 0.16 0.15 0.16 0.16 0.22 0.24 0.25 0.24 0.21 0.24 0.19 0.19 0.20 0.22 0.22 0.22 0.22 0.21 0.19 0.19 0.17 0.15 0.14 0.13 0.13 0.13 0.13 0.13
0.38 0.39 0.42 0.44 0.45 0.44 0.43 0.40 0.40 0.39 0.38 0.36 0.34 0.32 0.31 0.32 0.34 0.33 0.33 0.33 0.33 0.28 0.25 0.26 0.27 0.21 0.15 0.21 0.16 0.18 0.24 0.23 0.25 0.27 0.29 0.30 0.29 0.28 0.25 0.24 0.23 0.23 0.22 0.20 0.22 0.19 0.20 0.17 0.19 0.14 0.16 0.17 0.18 0.16 0.11 0.09 0.11 0.11 0.13 0.14 0.15 0.17 0.18 0.17 0.17 0.22 0.24 0.24 0.20 0.21 0.19 0.19 0.20 0.21 0.21 0.21 0.21 0.19 0.17 0.17 0.15 0.12 0.12 0.12 0.12 0.12 0.12 0.12
0.40 0.42 0.45 0.46 0.44 0.42 0.43 0.40 0.40 0.40 0.37 0.34 0.33 0.35 0.36 0.35 0.31 0.29 0.27 0.26 0.21 0.17 0.15 0.16 0.16 0.11 0.10 0.17 0.23 0.23 0.23 0.25 0.26 0.26 0.24 0.28 0.29 0.29 0.27 0.26 0.23 0.19 0.17 0.15 0.15 0.17 0.18 0.16 0.16 0.12 0.10 0.12 0.14 0.15 0.13 0.14 0.16 0.15 0.16 0.15 0.16 0.15 0.16 0.17 0.20 0.24 0.23 0.20 0.19 0.19 0.16 0.17 0.18 0.18 0.18 0.18 0.19 0.17 0.16 0.17 0.14 0.12 0.11 0.12 0.12 0.12 0.12 0.12
0.43 0.45 0.46 0.44 0.41 0.41 0.43 0.42 0.40 0.38 0.35 0.30 0.29 0.28 0.26 0.20 0.19 0.19 0.24 0.23 0.20 0.19 0.19 0.20 0.22 0.21 0.21 0.20 0.20 0.23 0.27 0.26 0.20 0.23 0.26 0.29 0.28 0.25 0.22 0.23 0.20 0.20 0.16 0.12 0.14 0.15 0.17 0.11 0.10 0.10 0.11 0.13 0.16 0.18 0.17 0.18 0.18 0.18 0.18 0.17 0.16 0.16 0.17 0.20 0.20 0.23 0.25 0.20 0.19 0.18 0.17 0.17 0.17 0.16 0.17 0.17 0.17 0.16 0.15 0.15 0.13 0.11 0.10 0.11 0.11 0.11 0.12 0.12
0.46 0.46 0.44 0.41 0.40 0.41 0.41 0.40 0.38 0.36 0.36 0.32 0.28 0.25 0.18 0.17 0.14 0.14 0.19 0.22 0.25 0.25 0.23 0.22 0.22 0.20 0.19 0.21 0.21 0.21 0.18 0.19 0.22 0.21 0.24 0.29 0.27 0.21 0.16 0.19 0.15 0.12 0.15 0.16 0.13 0.16 0.14 0.09 0.10 0.13 0.15 0.16 0.17 0.19 0.19 0.16 0.17 0.15 0.15 0.15 0.14 0.15 0.14 0.18 0.18 0.22 0.24 0.18 0.16 0.17 0.16 0.15 0.16 0.16 0.17 0.17 0.16 0.14 0.14 0.14 0.13 0.12 0.10 0.11 0.11 0.11 0.11 0.13
0.47 0.46 0.43 0.41 0.41 0.39 0.38 0.38 0.40 0.37 0.37 0.34 0.28 0.25 0.30 0.30 0.28 0.25 0.22 0.17 0.23 0.25 0.24 0.24 0.25 0.22 0.24 0.23 0.23 0.24 0.22 0.17 0.17 0.19 0.23 0.23 0.19 0.15 0.15 0.14 0.12 0.10 0.15 0.15 0.13 0.11 0.10 0.09 0.12 0.14 0.16 0.16 0.16 0.16 0.16 0.13 0.12 0.13 0.12 0.12 0.12 0.13 0.16 0.19 0.18 0.20 0.20 0.17 0.12 0.14 0.13 0.14 0.16 0.16 0.16 0.16 0.16 0.15 0.16 0.15 0.14 0.13 0.11 0.10 0.11 0.12 0.12 0.13
0.47 0.46 0.44 0.41 0.38 0.36 0.37 0.39 0.40 0.40 0.34 0.26 0.22 0.27 0.29 0.32 0.39 0.38 0.28 0.21 0.20 0.26 0.23 0.20 0.18 0.20 0.22 0.25 0.24 0.23 0.15 0.14 0.14 0.18 0.19 0.21 0.16 0.16 0.16 0.13 0.12 0.13 0.14 0.13 0.09 0.09 0.07 0.10 0.13 0.16 0.16 0.15 0.14 0.14 0.13 0.13 0.13 0.11 0.11 0.10 0.09 0.12 0.10 0.07 0.14 0.16 0.16 0.14 0.11 0.14 0.13 0.13 0.15 0.17 0.16 0.17 0.16 0.16 0.17 0.16 0.16 0.16 0.13 0.11 0.11 0.12 0.12 0.13
0.44 0.44 0.43 0.39 0.39 0.37 0.38 0.39 0.41 0.37 0.32 0.27 0.26 0.27 0.35 0.41 0.40 0.33 0.22 0.16 0.16 0.21 0.22 0.21 0.20 0.19 0.19 0.19 0.25 0.20 0.14 0.15 0.17 0.15 0.24 0.21 0.14 0.18 0.14 0.13 0.12 0.12 0.11 0.12 0.11 0.09 0.09 0.11 0.15 0.14 0.14 0.14 0.12 0.14 0.13 0.12 0.11 0.11 0.09 0.07 0.07 0.08 0.09 0.08 0.09 0.13 0.14 0.14 0.16 0.14 0.11 0.09 0.12 0.12 0.14 0.16 0.18 0.17 0.17 0.16 0.16 0.16 0.16 0.14 0.14 0.14 0.14 0.14
0.46 0.46 0.43 0.40 0.42 0.42 0.40 0.40 0.32 0.32 0.35 0.28 0.28 0.35 0.39 0.39 0.39 0.37 0.21 0.16 0.16 0.16 0.26 0.22 0.23 0.19 0.21 0.27 0.27 0.18 0.16 0.17 0.17 0.20 0.22 0.25 0.21 0.19 0.14 0.18 0.14 0.10 0.11 0.12 0.10 0.09 0.09 0.12 0.14 0.10 0.10 0.11 0.11 0.11 0.12 0.11 0.08 0.07 0.07 0.07 0.07 0.08 0.08 0.10 0.11 0.10 0.09 0.09 0.14 0.12 0.05 0.04 0.09 0.11 0.12 0.15 0.15 0.14 0.16 0.14 0.14 0.15 0.16 0.15 0.14 0.14 0.15 0.15
0.47 0.44 0.42 0.43 0.45 0.42 0.45 0.32 0.30 0.32 0.28 0.23 0.28 0.37 0.37 0.41 0.43 0.40 0.22 0.13 0.10 0.15 0.20 0.12 0.24 0.15 0.27 0.15 0.22 0.21 0.20 0.12 0.20 0.20 0.23 0.24 0.29 0.21 0.19 0.14 0.14 0.09 0.11 0.10 0.09 0.10 0.10 0.11 0.09 0.06 0.06 0.07 0.08 0.08 0.09 0.07 0.04 0.03 0.04 0.09 0.08 0.08 0.09 0.09 0.09 0.10 0.06 0.04 0.10 0.14 0.05 0.03 0.07 0.07 0.10 0.11 0.12 0.11 0.14 0.13 0.12 0.15 0.16 0.16 0.15 0.15 0.15 0.15
0.46 0.45 0.45 0.45 0.45 0.44 0.32 0.26 0.37 0.31 0.21 0.21 0.33 0.37 0.36 0.39 0.40 0.31 0.18 0.13 0.09 0.16 0.13 0.17 0.20 0.16 0.23 0.16 0.18 0.22 0.07 0.11 0.22 0.20 0.21 0.24 0.21 0.27 0.15 0.13 0.15 0.15 0.15 0.13 0.09 0.07 0.11 0.08 0.07 0.06 0.04 0.04 0.03 0.03 0.05 0.06 0.04 0.03 0.07 0.09 0.09 0.08 0.08 0.09 0.09 0.10 0.08 0.13 0.14 0.14 0.10 0.05 0.03 0.04 0.08 0.09 0.09 0.10 0.10 0.11 0.12 0.13 0.15 0.16 0.16 0.16 0.16 0.16
0.47 0.45 0.44 0.45 0.43 0.38 0.32 0.36 0.29 0.20 0.22 0.28 0.36 0.35 0.40 0.39 0.38 0.30 0.13 0.05 0.05 0.19 0.13 0.16 0.16 0.25 0.19 0.18 0.18 0.12 0.13 0.18 0.15 0.16 0.22 0.23 0.24 0.19 0.19 0.15 0.14 0.14 0.15 0.11 0.05 0.08 0.09 0.06 0.06 0.04 0.04 0.03 0.03 0.05 0.06 0.07 0.04 0.04 0.08 0.10 0.08 0.08 0.09 0.11 0.10 0.10 0.11 0.09 0.06 0.10 0.12 0.06 0.04 0.04 0.09 0.09 0.07 0.07 0.08 0.09 0.10 0.11 0.13 0.15 0.16 0.16 0.17 0.17
0.42 0.39 0.41 0.41 0.41 0.39 0.39 0.31 0.24 0.20 0.31 0.33 0.34 0.35 0.38 0.38 0.30 0.16 0.11 0.05 0.11 0.16 0.28 0.12 0.26 0.18 0.18 0.19 0.15 0.16 0.14 0.16 0.11 0.16 0.21 0.21 0.22 0.17 0.12 0.15 0.15 0.14 0.14 0.11 0.06 0.07 0.08 0.09 0.08 0.07 0.05 0.03 0.06 0.07 0.07 0.07 0.03 0.06 0.10 0.13 0.11 0.11 0.11 0.12 0.11 0.10 0.10 0.08 0.04 0.06 0.10 0.04 0.03 0.04 0.05 0.08 0.07 0.06 0.07 0.08 0.09 0.11 0.12 0.13 0.15 0.16 0.17 0.18
0.40 0.37 0.36 0.37 0.33 0.31 0.30 0.28 0.23 0.33 0.32 0.32 0.33 0.34 0.35 0.29 0.18 0.11 0.07 0.04 0.17 0.08 0.18 0.16 0.15 0.12 0.18 0.13 0.13 0.15 0.11 0.13 0.16 0.17 0.17 0.15 0.17 0.19 0.17 0.21 0.13 0.10 0.09 0.10 0.09 0.09 0.10 0.14 0.15 0.08 0.06 0.07 0.07 0.07 0.08 0.07 0.06 0.08 0.11 0.08 0.09 0.09 0.09 0.10 0.10 0.10 0.08 0.05 0.04 0.06 0.08 0.06 0.03 0.03 0.04 0.04 0.04 0.06 0.06 0.08 0.09 0.10 0.11 0.13 0.14 0.15 0.17 0.17
0.40 0.36 0.31 0.33 0.23 0.27 0.23 0.15 0.21 0.31 0.32 0.31 0.32 0.29 0.24 0.18 0.12 0.07 0.04 0.06 0.17 0.13 0.20 0.14 0.12 0.20 0.13 0.11 0.10 0.15 0.13 0.13 0.12 0.13 0.11 0.17 0.14 0.17 0.16 0.13 0.17 0.10 0.08 0.07 0.06 0.08 0.08 0.09 0.08 0.09 0.12 0.10 0.09 0.06 0.09 0.10 0.06 0.06 0.05 0.05 0.04 0.03 0.05 0.04 0.04 0.08 0.04 0.02 0.04 0.06 0.07 0.07 0.03 0.03 0.04 0.06 0.07 0.08 0.07 0.07 0.07 0.08 0.10 0.12 0.13 0.15 0.16 0.17
0.39 0.36 0.32 0.26 0.30 0.35 0.20 0.13 0.24 0.32 0.31 0.30 0.26 0.20 0.17 0.08 0.09 0.04 0.05 0.17 0.07 0.10 0.10 0.12 0.16 0.15 0.13 0.15 0.13 0.12 0.11 0.13 0.13 0.11 0.09 0.11 0.11 0.11 0.12 0.08 0.13 0.06 0.04 0.05 0.03 0.07 0.05 0.06 0.08 0.09 0.11 0.08 0.05 0.05 0.07 0.07 0.05 0.04 0.04 0.04 0.03 0.02 0.02 0.02 0.02 0.02 0.02 0.02 0.04 0.06 0.06 0.04 0.04 0.04 0.04 0.05 0.07 0.08 0.09 0.08 0.08 0.08 0.10 0.11 0.13 0.15 0.16 0.17
0.38 0.37 0.36 0.32 0.30 0.25 0.27 0.29 0.33 0.32 0.33 0.29 0.20 0.17 0.10 0.06 0.03 0.07 0.08 0.10 0.06 0.14 0.11 0.20 0.14 0.13 0.12 0.12 0.10 0.14 0.16 0.10 0.13 0.11 0.13 0.11 0.09 0.10 0.14 0.13 0.14 0.10 0.05 0.07 0.05 0.04 0.03 0.07 0.07 0.07 0.08 0.09 0.06 0.03 0.03 0.04 0.04 0.03 0.03 0.03 0.02 0.02 0.02 0.01 0.02 0.02 0.02 0.03 0.04 0.05 0.06 0.04 0.03 0.04 0.05 0.05 0.06 0.07 0.09 0.09 0.10 0.10 0.10 0.11 0.13 0.15 0.16 0.17
0.37 0.37 0.33 0.35 0.32 0.32 0.32 0.35 0.35 0.36 0.30 0.25 0.17 0.14 0.10 0.05 0.04 0.13 0.08 0.10 0.10 0.16 0.16 0.14 0.16 0.15 0.12 0.09 0.11 0.14 0.10 0.14 0.13 0.10 0.10 0.08 0.08 0.06 0.09 0.12 0.13 0.11 0.09 0.08 0.04 0.05 0.02 0.02 0.04 0.05 0.04 0.09 0.06 0.05 0.05 0.04 0.04 0.04 0.05 0.04 0.02 0.02 0.02 0.02 0.02 0.02 0.02 0.02 0.03 0.05 0.04 0.03 0.03 0.03 0.06 0.06 0.08 0.09 0.10 0.10 0.11 0.11 0.12 0.13 0.14 0.15 0.16 0.16
0.36 0.35 0.35 0.37 0.34 0.33 0.35 0.36 0.36 0.37 0.27 0.19 0.14 0.10 0.05 0.04 0.07 0.06 0.07 0.09 0.13 0.15 0.12 0.16 0.14 0.13 0.09 0.11 0.13 0.15 0.13 0.09 0.14 0.12 0.09 0.07 0.06 0.07 0.06 0.07 0.12 0.13 0.11 0.06 0.06 0.07 0.05 0.03 0.05 0.10 0.08 0.09 0.06 0.08 0.08 0.06 0.05 0.05 0.05 0.04 0.03 0.03 0.04 0.03 0.03 0.04 0.04 0.04 0.03 0.04 0.03 0.04 0.03 0.05 0.07 0.09 0.09 0.09 0.10 0.10 0.10 0.10 0.11 0.13 0.13 0.13 0.14 0.16
0.36 0.29 0.32 0.28 0.32 0.35 0.35 0.37 0.36 0.32 0.23 0.16 0.10 0.06 0.05 0.06 0.05 0.10 0.08 0.17 0.15 0.11 0.13 0.13 0.11 0.09 0.08 0.09 0.12 0.11 0.16 0.11 0.12 0.12 0.10 0.10 0.09 0.07 0.09 0.09 0.09 0.11 0.08 0.05 0.07 0.04 0.05 0.03 0.09 0.10 0.11 0.09 0.09 0.09 0.07 0.08 0.03 0.04 0.04 0.03 0.04 0.07 0.06 0.05 0.06 0.07 0.07 0.05 0.04 0.05 0.05 0.05 0.06 0.05 0.06 0.07 0.07 0.07 0.08 0.09 0.09 0.09 0.10 0.12 0.12 0.13 0.14 0.15
0.27 0.29 0.20 0.24 0.28 0.37 0.36 0.35 0.32 0.25 0.21 0.14 0.07 0.05 0.09 0.11 0.15 0.13 0.15 0.12 0.14 0.16 0.13 0.07 0.07 0.07 0.06 0.06 0.08 0.09 0.10 0.14 0.10 0.10 0.07 0.12 0.08 0.09 0.07 0.09 0.12 0.11 0.12 0.08 0.07 0.11 0.05 0.04 0.09 0.08 0.07 0.11 0.13 0.12 0.10 0.09 0.07 0.05 0.04 0.04 0.09 0.11 0.10 0.07 0.05 0.05 0.04 0.03 0.03 0.04 0.03 0.03 0.04 0.03 0.06 0.05 0.06 0.06 0.06 0.07 0.08 0.09 0.10 0.11 0.11 0.12 0.13 0.14
0.25 0.22 0.20 0.20 0.26 0.35 0.39 0.36 0.31 0.22 0.17 0.11 0.07 0.08 0.14 0.09 0.17 0.16 0.19 0.17 0.17 0.16 0.10 0.07 0.08 0.11 0.06 0.07 0.06 0.09 0.10 0.08 0.09 0.10 0.08 0.10 0.07 0.13 0.08 0.06 0.12 0.10 0.12 0.15 0.07 0.07 0.09 0.04 0.07 0.10 0.09 0.11 0.14 0.13 0.10 0.11 0.11 0.06 0.05 0.10 0.05 0.04 0.03 0.07 0.06 0.03 0.03 0.03 0.03 0.03 0.04 0.04 0.04 0.04 0.05 0.05 0.05 0.05 0.06 0.07 0.08 0.08 0.09 0.09 0.10 0.11 0.13 0.15
0.24 0.17 0.12 0.18 0.27 0.31 0.29 0.30 0.26 0.19 0.11 0.07 0.08 0.07 0.11 0.12 0.18 0.16 0.19 0.19 0.18 0.14 0.08 0.09 0.07 0.10 0.09 0.07 0.09 0.11 0.10 0.07 0.10 0.08 0.06 0.09 0.06 0.12 0.08 0.09 0.08 0.12 0.13 0.11 0.07 0.07 0.11 0.04 0.03 0.10 0.10 0.11 0.11 0.09 0.04 0.06 0.10 0.10 0.10 0.08 0.09 0.06 0.05 0.04 0.05 0.04 0.04 0.03 0.03 0.03 0.04 0.03 0.04 0.04 0.04 0.04 0.05 0.05 0.06 0.06 0.06 0.07 0.08 0.09 0.10 0.11 0.12 0.13
0.19 0.13 0.10 0.20 0.26 0.27 0.24 0.22 0.14 0.12 0.08 0.05 0.08 0.08 0.14 0.11 0.15 0.19 0.20 0.19 0.13 0.12 0.09 0.09 0.11 0.08 0.10 0.09 0.11 0.08 0.11 0.10 0.09 0.08 0.08 0.09 0.08 0.14 0.07 0.11 0.07 0.10 0.13 0.12 0.08 0.11 0.06 0.08 0.03 0.06 0.10 0.10 0.05 0.08 0.06 0.06 0.05 0.06 0.07 0.06 0.07 0.07 0.09 0.07 0.07 0.05 0.04 0.04 0.04 0.03 0.03 0.04 0.04 0.05 0.05 0.05 0.05 0.06 0.06 0.06 0.06 0.07 0.08 0.09 0.10 0.11 0.12 0.14
0.18 0.12 0.11 0.21 0.23 0.28 0.21 0.14 0.10 0.09 0.08 0.12 0.13 0.11 0.13 0.11 0.15 0.17 0.21 0.21 0.16 0.19 0.12 0.11 0.10 0.08 0.09 0.10 0.09 0.13 0.10 0.10 0.10 0.09 0.09 0.08 0.08 0.05 0.15 0.08 0.09 0.07 0.13 0.11 0.08 0.08 0.06 0.06 0.03 0.04 0.03 0.04 0.04 0.08 0.08 0.08 0.08 0.07 0.07 0.06 0.07 0.06 0.05 0.04 0.04 0.07 0.06 0.05 0.04 0.03 0.03 0.04 0.05 0.06 0.06 0.05 0.06 0.06 0.06 0.07 0.07 0.08 0.08 0.09 0.10 0.12 0.13 0.14
0.15 0.07 0.09 0.20 0.22 0.24 0.13 0.08 0.11 0.15 0.11 0.09 0.08 0.12 0.11 0.18 0.14 0.15 0.16 0.19 0.16 0.13 0.18 0.14 0.13 0.12 0.11 0.10 0.11 0.11 0.10 0.09 0.10 0.09 0.10 0.07 0.11 0.09 0.10 0.12 0.09 0.11 0.07 0.05 0.06 0.10 0.08 0.06 0.05 0.03 0.03 0.03 0.05 0.09 0.11 0.11 0.10 0.09 0.08 0.07 0.08 0.08 0.07 0.05 0.03 0.03 0.05 0.06 0.06 0.05 0.04 0.03 0.07 0.06 0.06 0.06 0.06 0.07 0.07 0.08 0.08 0.09 0.09 0.10 0.11 0.13 0.14 0.16
0.12 0.09 0.16 0.18 0.21 0.16 0.11 0.10 0.13 0.11 0.10 0.14 0.19 0.17 0.19 0.16 0.14 0.15 0.14 0.16 0.12 0.15 0.13 0.12 0.11 0.11 0.13 0.11 0.11 0.11 0.12 0.09 0.10 0.08 0.10 0.10 0.10 0.11 0.12 0.11 0.12 0.08 0.10 0.08 0.10 0.10 0.12 0.06 0.05 0.04 0.05 0.04 0.06 0.09 0.10 0.11 0.10 0.08 0.09 0.10 0.09 0.07 0.06 0.05 0.05 0.05 0.04 0.05 0.04 0.04 0.04 0.03 0.06 0.06 0.06 0.07 0.07 0.08 0.08 0.09 0.09 0.09 0.10 0.11 0.12 0.13 0.14 0.16
0.10 0.10 0.12 0.17 0.20 0.17 0.09 0.06 0.07 0.09 0.11 0.14 0.15 0.14 0.19 0.16 0.14 0.12 0.12 0.14 0.12 0.11 0.11 0.12 0.13 0.14 0.11 0.15 0.13 0.10 0.13 0.07 0.11 0.11 0.10 0.13 0.11 0.16 0.14 0.13 0.12 0.06 0.06 0.05 0.05 0.14 0.07 0.06 0.05 0.04 0.03 0.03 0.03 0.06 0.07 0.09 0.10 0.08 0.08 0.09 0.09 0.08 0.08 0.07 0.07 0.07 0.05 0.04 0.04 0.03 0.02 0.03 0.04 0.07 0.08 0.07 0.08 0.08 0.08 0.09 0.10 0.10 0.11 0.12 0.13 0.14 0.15 0.16
0.10 0.12 0.12 0.14 0.16 0.13 0.08 0.09 0.08 0.09 0.10 0.10 0.10 0.09 0.10 0.12 0.16 0.15 0.14 0.12 0.17 0.15 0.13 0.11 0.13 0.15 0.13 0.16 0.13 0.13 0.14 0.10 0.08 0.13 0.12 0.12 0.12 0.17 0.17 0.14 0.14 0.08 0.09 0.10 0.09 0.11 0.06 0.05 0.04 0.03 0.03 0.03 0.02 0.02 0.02 0.02 0.03 0.06 0.07 0.07 0.08 0.07 0.06 0.06 0.04 0.05 0.04 0.05 0.05 0.04 0.03 0.04 0.05 0.06 0.06 0.06 0.07 0.07 0.09 0.10 0.11 0.12 0.12 0.12 0.14 0.14 0.15 0.16
0.08 0.05 0.08 0.10 0.13 0.13 0.14 0.17 0.13 0.10 0.09 0.09 0.08 0.10 0.12 0.10 0.14 0.18 0.17 0.14 0.16 0.16 0.14 0.14 0.16 0.16 0.14 0.13 0.12 0.11 0.11 0.14 0.11 0.10 0.11 0.10 0.12 0.15 0.16 0.16 0.14 0.11 0.10 0.12 0.11 0.10 0.06 0.07 0.06 0.04 0.04 0.03 0.03 0.03 0.04 0.05 0.05 0.04 0.05 0.06 0.06 0.07 0.08 0.07 0.06 0.06 0.04 0.04 0.05 0.05 0.04 0.04 0.04 0.05 0.05 0.05 0.06 0.07 0.07 0.09 0.10 0.11 0.12 0.14 0.15 0.15 0.15 0.15
0.11 0.07 0.07 0.07 0.10 0.11 0.11 0.13 0.11 0.11 0.09 0.11 0.08 0.10 0.09 0.11 0.12 0.14 0.22 0.11 0.16 0.15 0.15 0.15 0.13 0.11 0.11 0.12 0.11 0.11 0.12 0.11 0.14 0.12 0.11 0.11 0.13 0.14 0.18 0.17 0.16 0.15 0.14 0.13 0.14 0.11 0.09 0.07 0.06 0.06 0.06 0.05 0.05 0.05 0.05 0.06 0.05 0.06 0.06 0.06 0.07 0.08 0.08 0.07 0.06 0.05 0.06 0.06 0.04 0.06 0.06 0.05 0.05 0.05 0.05 0.06 0.07 0.08 0.09 0.09 0.10 0.11 0.13 0.14 0.14 0.15 0.15 0.16
0.08 0.13 0.15 0.16 0.09 0.07 0.09 0.10 0.13 0.12 0.13 0.14 0.10 0.13 0.10 0.10 0.11 0.09 0.15 0.16 0.17 0.19 0.12 0.15 0.15 0.13 0.12 0.11 0.12 0.09 0.10 0.10 0.11 0.09 0.12 0.13 0.13 0.14 0.14 0.18 0.16 0.17 0.16 0.14 0.16 0.11 0.08 0.07 0.07 0.07 0.07 0.07 0.07 0.07 0.07 0.08 0.08 0.08 0.08 0.08 0.08 0.08 0.09 0.08 0.07 0.07 0.07 0.06 0.05 0.05 0.06 0.06 0.06 0.06 0.07 0.07 0.08 0.09 0.10 0.10 0.12 0.13 0.14 0.15 0.15 0.14 0.14 0.15
0.17 0.16 0.15 0.18 0.09 0.12 0.12 0.13 0.14 0.12 0.11 0.12 0.12 0.12 0.10 0.10 0.10 0.12 0.12 0.13 0.15 0.13 0.15 0.09 0.11 0.13 0.13 0.15 0.13 0.10 0.11 0.08 0.08 0.11 0.11 0.12 0.12 0.12 0.11 0.13 0.17 0.19 0.17 0.15 0.15 0.14 0.10 0.08 0.08 0.09 0.08 0.09 0.09 0.09 0.09 0.09 0.09 0.09 0.09 0.09 0.09 0.09 0.09 0.09 0.08 0.09 0.09 0.08 0.08 0.08 0.07 0.07 0.08 0.08 0.08 0.09 0.10 0.11 0.12 0.13 0.14 0.14 0.13 0.14 0.14 0.14 0.14 0.15
0.10 0.08 0.09 0.15 0.14 0.13 0.13 0.13 0.12 0.11 0.09 0.12 0.09 0.11 0.11 0.10 0.10 0.13 0.15 0.14 0.11 0.12 0.17 0.12 0.12 0.14 0.14 0.14 0.14 0.11 0.11 0.11 0.10 0.09 0.12 0.12 0.12 0.13 0.12 0.12 0.12 0.17 0.17 0.14 0.15 0.16 0.11 0.08 0.13 0.11 0.09 0.08 0.09 0.10 0.10 0.09 0.09 0.08 0.09 0.10 0.10 0.10 0.10 0.10 0.10 0.10 0.10 0.10 0.10 0.10 0.09 0.09 0.10 0.10 0.10 0.11 0.12 0.13 0.13 0.13 0.13 0.13 0.14 0.14 0.14 0.14 0.14 0.15
0.13 0.16 0.13 0.09 0.09 0.12 0.14 0.13 0.11 0.10 0.09 0.11 0.10 0.11 0.13 0.12 0.11 0.14 0.13 0.17 0.13 0.12 0.14 0.12 0.14 0.15 0.16 0.15 0.15 0.13 0.15 0.15 0.15 0.14 0.15 0.14 0.11 0.14 0.12 0.12 0.16 0.13 0.16 0.15 0.15 0.14 0.13 0.10 0.11 0.10 0.08 0.08 0.09 0.09 0.10 0.10 0.10 0.10 0.10 0.10 0.10 0.10 0.10 0.10 0.10 0.10 0.10 0.09 0.09 0.10 0.10 0.10 0.10 0.11 0.12 0.12 0.12 0.12 0.12 0.12 0.13 0.13 0.13 0.14 0.14 0.14 0.15 0.15
0.17 0.18 0.17 0.11 0.09 0.13 0.11 0.13 0.12 0.10 0.08 0.11 0.12 0.12 0.12 0.12 0.14 0.16 0.12 0.17 0.18 0.18 0.16 0.15 0.16 0.15 0.14 0.14 0.13 0.15 0.17 0.18 0.18 0.19 0.19 0.19 0.19 0.18 0.18 0.17 0.17 0.15 0.15 0.15 0.16 0.14 0.13 0.12 0.10 0.10 0.09 0.08 0.10 0.10 0.11 0.11 0.10 0.09 0.09 0.10 0.10 0.10 0.10 0.11 0.12 0.12 0.12 0.11 0.10 0.09 0.09 0.10 0.11 0.12 0.11 0.11 0.12 0.12 0.13 0.13 0.13 0.13 0.14 0.14 0.14 0.15 0.15 0.16
Wind_Speed
5 6 5 5 5 5 4 4 3 3 2 2 1 0 2 2 3 2 2 1 1 1 1 2 2 3 3 3 3 3 4 3 2 2 2 4 5 6 7 7 8 8 8 8 8 9 9 9 9 10 9 10 10 10 10 10 11 10 11 11 13 13 13 14 14 14 13 14 15 14 13 12 13 14 14 14 13 12 12 12 13 13 13 14 15 16 16 16
5 5 5 5 4 4 4 4 3 3 2 2 1 1 1 2 3 3 3 3 3 2 2 2 3 3 4 4 4 4 4 4 3 3 4 6 6 7 8 8 8 8 8 8 8 8 8 9 9 9 9 10 10 10 10 10 10 10 11 12 14 14 13 14 14 13 12 12 12 12 12 12 15 17 16 16 16 15 13 15 15 14 15 15 16 16 16 16
5 5 4 4 4 4 3 3 3 2 2 2 2 2 2 2 2 2 3 3 3 3 3 3 3 3 3 3 4 4 4 4 4 5 6 7 8 8 8 9 8 8 8 8 8 7 8 8 8 8 9 9 10 10 10 10 10 10 11 11 13 13 12 13 12 11 11 11 10 12 12 12 15 17 16 14 15 16 16 18 17 15 17 17 17 17 16 16
4 4 3 3 3 3 3 2 3 3 3 3 3 3 3 3 3 3 3 3 3 3 4 4 3 3 3 3 4 4 3 3 4 6 7 7 8 9 8 8 8 7 7 7 8 8 8 8 8 8 8 10 10 10 11 11 11 11 11 12 13 12 11 12 10 9 10 10 10 12 12 12 15 16 16 16 15 17 18 18 18 17 17 17 18 18 17 17
3 3 3 2 2 3 3 3 3 3 3 3 4 4 4 4 3 3 3 3 3 3 3 3 3 3 3 3 3 3 3 4 5 6 7 8 9 9 8 8 8 7 7 7 8 8 8 8 8 8 8 10 10 10 11 11 10 10 12 12 12 12 11 12 11 10 11 11 10 12 13 15 16 16 17 17 16 19 19 18 18 18 18 18 18 18 18 18
2 2 2 2 3 3 3 3 3 4 4 4 4 4 4 4 3 3 3 3 3 3 3 3 3 3 2 3 3 3 2 4 6 7 8 9 9 9 9 8 8 8 8 8 8 8 8 8 9 9 9 10 10 11 12 12 11 11 13 13 12 12 11 13 13 12 13 11 12 14 14 15 14 15 17 14 15 18 18 18 18 17 18 18 18 18 18 18
2 2 2 3 3 4 4 4 4 5 5 5 5 4 4 3 3 3 3 3 3 2 2 2 2 2 1 1 1 2 2 4 6 7 9 10 10 10 9 8 8 8 8 8 9 9 9 9 9 10 9 10 11 11 11 11 10 10 13 13 11 10 10 12 12 12 11 10 12 13 13 15 14 15 17 15 16 18 17 18 18 17 17 17 17 17 17 18
2 2 3 3 4 4 4 4 5 5 5 5 4 4 3 3 2 3 3 2 2 2 2 3 2 2 2 1 1 2 3 5 7 8 9 10 10 10 9 9 9 9 8 9 10 10 9 9 10 10 10 11 12 12 11 10 11 11 13 13 11 10 10 10 10 9 8 9 11 10 12 15 14 15 17 17 17 18 18 18 17 17 17 17 17 17 18 18
2 3 3 4 4 5 5 5 5 5 5 4 4 3 3 2 2 2 2 2 2 2 2 3 2 2 3 2 3 3 5 7 8 10 11 11 10 9 8 9 9 8 8 9 10 9 10 10 10 11 11 12 11 12 12 12 13 13 12 12 11 10 10 9 9 9 9 11 11 9 12 14 14 15 17 18 19 18 18 18 18 17 17 18 18 18 18 19
2 3 4 5 5 5 5 5 5 5 4 4 3 3 3 2 1 1 1 1 1 2 2 2 2 2 3 3 3 4 7 8 9 11 11 11 10 9 8 8 8 8 8 9 9 9 9 10 10 10 10 11 11 12 13 12 11 10 9 9 9 10 12 11 10 10 11 14 12 10 14 16 17 19 19 20 19 18 18 18 18 18 18 18 18 18 18 19
3 4 4 5 6 6 6 5 5 4 4 4 3 3 3 2 0 1 1 0 0 1 1 1 1 1 2 3 3 5 8 9 10 11 11 10 9 8 8 8 8 7 8 8 8 9 9 9 9 9 10 11 11 11 11 9 7 7 7 8 10 10 12 11 11 12 13 14 12 10 13 16 18 18 18 19 18 18 18 18 18 18 18 18 18 18 18 18
3 4 5 6 6 6 5 5 5 4 4 3 3 3 3 2 1 1 1 0 1 1 1 1 1 2 3 4 4 6 9 9 10 11 10 9 7 7 8 8 8 7 7 7 8 9 8 9 8 9 11 10 10 10 9 8 6 8 8 9 12 11 12 14 14 15 14 15 14 13 14 17 18 17 17 17 17 17 18 17 17 17 17 17 18 18 18 18
4 5 6 6 6 5 5 5 5 4 4 3 3 2 2 2 1 0 0 1 1 2 2 3 4 4 4 5 6 7 9 9 9 9 9 8 7 7 7 7 7 7 7 7 8 8 8 8 7 8 9 9 11 10 9 9 8 10 11 11 13 13 14 16 15 15 14 15 17 17 16 18 19 17 16 16 16 17 16 16 16 16 16 17 17 18 18 18
4 5 5 6 5 5 5 5 5 5 4 4 3 2 2 1 1 0 0 1 1 2 3 3 4 4 4 4 6 8 9 9 9 9 8 8 7 7 7 7 7 6 6 6 7 7 7 7 6 7 9 9 9 8 8 10 11 11 12 13 13 14 15 15 15 14 14 16 17 16 17 18 18 18 17 17 17 16 15 15 15 16 16 16 17 17 17 17
4 5 5 5 5 4 5 5 5 5 4 4 4 3 2 1 1 1 0 1 1 2 3 4 4 4 4 5 7 9 9 8 9 9 9 7 6 7 7 7 7 6 6 6 6 6 6 7 6 8 10 9 8 9 10 12 12 12 13 14 15 14 16 16 15 14 15 16 16 15 17 18 19 19 18 17 17 17 16 15 16 16 16 16 17 17 17 17
4 4 4 4 4 4 4 4 4 4 5 4 4 3 2 1 1 1 1 1 2 3 3 5 5 3 4 6 8 9 9 9 10 10 8 8 7 7 7 7 7 6 5 6 6 6 6 6 6 8 9 9 9 10 11 12 13 14 13 14 15 14 15 16 15 15 16 17 16 16 17 18 19 18 18 18 17 17 16 16 17 17 17 17 17 18 18 18
4 4 4 4 4 4 4 3 3 4 4 5 4 4 3 2 2 2 2 3 3 3 4 5 5 4 5 7 8 9 9 9 10 9 8 8 7 7 6 6 6 6 6 6 7 7 7 8 8 9 9 10 11 11 11 13 15 15 14 14 15 15 15 16 16 16 16 16 16 17 16 18 19 17 17 18 17 17 17 17 17 17 18 18 18 18 19 19
3 3 4 4 4 4 3 3 3 3 4 4 4 4 4 4 3 3 3 3 4 4 5 6 6 4 6 8 7 8 9 9 9 9 8 7 6 6 6 5 6 6 7 8 9 9 9 9 9 10 11 11 12 11 12 14 15 15 14 14 15 15 15 15 16 17 17 15 16 17 17 17 18 17 17 18 17 17 18 17 18 18 18 18 19 19 20 20
3 3 4 4 4 4 3 2 2 3 3 3 3 3 3 4 5 5 6 5 5 5 5 7 6 4 6 8 8 8 8 8 8 8 7 6 6 6 6 6 7 7 8 9 10 11 10 10 10 10 12 12 13 13 13 14 14 13 14 13 14 14 15 16 16 17 16 15 17 17 17 17 17 17 17 18 18 18 18 18 18 18 19 19 19 20 20 21
3 3 4 4 4 4 3 2 2 1 2 2 2 3 2 3 5 6 7 7 6 5 4 5 6 5 6 8 9 8 7 7 7 8 8 8 7 7 8 8 8 8 9 10 11 11 9 9 10 11 12 13 14 14 13 13 12 11 12 12 13 13 14 16 16 17 17 15 17 17 16 17 17 17 18 18 18 18 18 18 19 19 19 20 21 21 22 22
3 3 4 4 4 4 3 2 1 1 1 1 2 3 3 3 4 4 4 6 6 6 6 6 5 6 6 8 9 8 6 7 8 10 11 9 8 9 10 10 9 9 11 11 11 11 9 9 10 12 13 13 13 12 10 10 11 10 11 11 12 13 14 16 16 17 17 16 17 17 16 17 18 17 18 17 18 19 19 18 19 20 20 21 22 22 23 22
3 4 4 5 4 4 3 2 2 2 2 2 3 4 4 2 2 2 2 4 6 7 7 7 7 6 6 6 9 8 6 8 10 11 12 11 9 9 10 10 9 10 12 11 10 10 10 9 11 12 12 11 11 11 9 9 10 11 11 12 13 13 14 15 16 16 17 16 16 16 16 18 18 17 18 18 18 19 19 20 20 20 20 21 22 22 22 22
4 5 5 5 4 3 2 1 1 2 3 3 3 3 2 1 1 2 3 4 5 6 7 8 8 8 7 7 9 9 8 9 10 12 13 11 9 9 9 9 9 10 12 11 9 9 9 10 12 12 11 10 10 11 10 10 11 11 12 12 13 14 13 15 15 15 15 15 15 15 15 17 18 17 18 18 18 19 19 20 20 20 20 20 21 21 21 21
5 5 5 5 4 2 1 1 1 2 2 2 2 1 1 0 1 2 4 4 4 5 6 6 7 8 8 8 9 9 8 9 9 12 14 11 9 9 9 9 9 10 11 10 8 8 9 11 11 11 10 9 10 11 11 10 11 13 12 11 12 13 13 13 13 13 14 14 13 13 15 17 16 16 17 17 17 19 19 19 20 20 20 20 20 20 21 21
5 6 5 4 3 2 1 1 2 2 2 2 1 1 1 1 1 2 4 4 5 6 6 6 7 9 9 9 10 8 8 9 10 12 13 11 10 9 9 10 10 10 10 9 9 9 9 11 11 10 11 11 9 11 12 10 11 13 12 11 11 11 11 10 11 11 13 13 12 12 13 15 14 14 16 15 15 18 17 18 19 19 20 20 20 20 21 21
6 5 4 3 2 1 1 2 2 2 3 2 2 2 1 1 2 2 3 4 5 6 7 7 8 10 10 11 10 8 8 10 10 12 12 12 11 9 9 11 10 9 9 9 10 9 10 11 10 9 10 10 9 9 11 9 9 11 11 9 9 9 9 9 10 10 11 12 12 11 11 13 14 14 14 14 14 15 15 16 18 18 18 19 20 20 21 21
6 5 4 3 2 2 2 3 3 2 3 3 3 2 1 1 2 2 3 5 5 6 8 8 8 10 10 11 11 8 8 11 11 12 13 12 11 9 10 11 10 10 10 9 10 10 10 11 11 10 9 9 8 8 9 8 8 10 10 9 9 8 8 9 9 10 11 10 11 11 10 11 13 12 12 12 13 14 15 16 17 17 18 19 20 21 21 22
6 5 3 2 1 2 3 3 2 3 3 2 2 2 1 1 2 3 3 4 5 6 7 8 9 10 10 11 12 9 9 11 10 12 14 12 11 10 9 10 9 10 11 9 9 10 9 10 11 9 8 8 7 8 9 7 8 10 10 9 9 8 8 8 8 9 10 9 10 11 9 9 12 12 12 12 12 14 15 16 17 18 19 19 21 22 23 23
5 4 3 2 1 2 2 2 2 2 2 1 3 3 2 2 3 4 4 3 5 6 7 8 9 10 11 11 12 12 11 11 10 11 13 12 11 10 9 10 8 9 11 9 8 9 8 9 8 7 7 8 8 9 8 7 9 9 8 8 9 8 8 8 8 9 9 9 10 11 9 9 12 13 12 11 12 14 15 16 17 18 19 20 21 23 23 24
5 5 3 1 2 2 2 2 2 1 0 2 3 3 2 2 3 4 4 4 6 7 8 9 9 10 12 11 12 13 12 11 12 12 11 11 11 11 9 9 9 10 11 10 8 8 9 8 7 6 7 8 8 9 8 7 9 8 7 8 9 9 9 8 9 8 9 10 11 11 9 9 12 14 12 11 13 13 14 15 17 18 19 20 22 23 24 24
5 6 4 2 1 1 1 1 1 1 1 3 4 3 2 3 4 4 4 5 6 7 8 9 9 10 11 10 11 12 11 12 13 12 11 11 12 12 11 10 10 10 10 10 9 9 9 9 8 8 8 8 8 9 8 8 8 7 8 8 8 9 9 9 10 9 9 11 12 11 10 9 12 14 14 13 15 14 14 15 17 18 19 20 22 23 24 25
5 6 5 3 1 1 1 1 1 2 3 4 4 2 2 3 5 4 5 6 6 7 8 9 10 10 11 11 11 12 11 11 12 10 10 10 10 11 11 10 10 10 10 9 9 9 9 8 9 9 8 8 8 8 9 9 9 9 9 8 8 10 10 10 10 10 10 12 12 11 11 12 15 17 16 16 17 16 16 17 18 20 21 21 22 23 25 25
5 5 5 5 3 2 2 2 3 4 4 5 4 2 3 4 4 4 5 6 6 7 8 9 10 10 10 11 11 12 11 10 11 10 9 9 10 10 11 10 9 9 9 8 8 9 9 9 10 9 9 9 8 8 8 9 10 9 8 7 8 8 9 10 11 11 12 13 12 13 14 15 17 18 17 17 17 17 18 19 21 22 22 23 23 24 25 26
5 5 5 5 5 4 4 4 4 5 5 5 3 3 4 4 4 4 6 6 7 8 8 9 10 11 11 10 11 11 10 10 11 10 10 10 10 11 11 11 10 9 8 7 8 8 8 9 10 9 9 9 9 8 7 8 10 10 8 7 8 7 8 10 11 11 12 13 14 14 14 14 15 16 17 17 18 18 19 20 22 23 24 24 25 25 25 27
4 5 5 5 6 5 4 4 4 5 5 4 4 4 4 3 4 4 6 6 7 8 9 9 10 10 11 11 11 10 9 10 11 10 11 10 10 10 11 11 11 9 8 8 9 8 8 9 10 10 9 9 9 9 8 8 9 10 9 9 9 9 9 10 11 12 13 14 14 14 14 15 17 19 20 19 19 19 20 21 22 23 25 25 26 26 27 28
5 5 6 6 5 4 4 4 4 5 4 3 5 5 3 3 4 4 5 7 7 8 9 10 10 10 11 11 11 11 10 10 10 10 10 10 9 10 10 10 10 9 8 8 9 9 9 10 10 11 10 9 9 10 10 10 10 10 11 11 11 11 10 11 13 14 13 15 15 14 16 19 19 21 20 18 19 20 20 22 23 25 26 26 27 29 29 30
4 5 6 6 6 4 3 3 4 4 3 4 5 4 3 3 4 5 6 7 7 8 8 9 10 10 10 10 11 11 11 10 10 10 10 10 10 10 11 10 10 9 9 8 9 9 9 10 11 10 10 11 10 10 11 11 11 11 12 12 12 12 12 12 14 15 14 16 17 16 17 19 18 20 21 19 19 21 22 23 24 26 27 28 29 30 31 32
4 4 5 6 6 4 3 3 3 3 3 5 4 3 4 4 5 5 6 7 8 9 9 9 9 9 9 9 10 11 11 11 11 11 10 11 11 10 10 11 10 10 10 9 9 10 9 11 13 11 10 13 12 11 13 13 12 12 12 12 12 13 14 13 14 15 15 17 19 18 19 19 18 19 21 19 20 22 23 24 25 27 28 30 31 32 32 33
3 3 4 5 5 4 4 3 3 3 4 5 4 3 4 5 5 6 6 7 8 9 9 9 9 10 9 9 10 11 11 10 11 11 11 11 11 10 10 11 10 10 10 9 9 11 10 10 12 12 12 13 13 12 13 14 13 14 14 15 15 14 14 15 14 15 16 17 20 21 20 18 18 20 20 20 21 23 24 25 26 28 30 31 32 33 33 34
2 3 3 4 4 3 4 4 4 5 5 4 3 4 5 5 5 6 7 7 8 9 9 9 9 10 10 10 10 10 11 11 10 11 11 11 11 11 10 10 10 11 11 10 10 11 11 11 12 14 13 13 14 13 13 13 13 14 15 16 16 16 16 17 17 16 16 17 18 21 22 21 20 20 20 22 24 24 25 27 28 30 31 32 33 33 34 35
3 3 3 4 3 3 4 5 5 5 5 4 4 4 5 5 6 7 8 8 8 9 9 8 9 9 10 10 10 10 11 11 11 11 11 11 11 11 10 9 9 11 11 11 11 11 11 11 12 14 15 14 15 15 14 14 14 14 15 16 16 16 16 18 19 19 18 18 18 20 24 25 21 19 21 24 25 27 28 28 30 32 33 34 34 34 35 36
4 4 3 4 5 4 5 6 5 5 4 4 5 5 5 6 6 7 8 8 8 9 9 9 10 10 10 10 10 10 11 11 11 11 11 11 11 11 10 9 9 10 10 11 12 12 11 12 13 15 15 15 16 16 15 15 15 15 16 17 17 17 17 17 19 20 19 20 20 20 24 26 23 21 24 26 27 29 30 30 32 33 34 35 36 36 36 37
5 4 3 4 5 5 6 5 5 5 5 5 5 6 6 6 7 8 8 9 9 9 10 10 10 10 10 10 10 10 11 11 10 11 11 11 12 11 10 10 10 11 11 11 12 12 12 12 13 15 16 16 16 16 15 15 15 16 17 17 17 18 19 19 20 21 20 21 21 21 24 27 26 26 27 29 30 32 32 32 33 34 35 36 37 37 37 38
6 5 5 5 4 4 5 4 4 4 5 5 6 7 7 7 8 8 8 9 9 9 10 10 10 10 10 10 11 10 11 11 11 11 12 11 12 12 11 10 11 11 11 12 12 12 12 13 13 15 16 16 16 16 16 16 16 17 18 18 18 19 19 20 22 21 22 24 22 22 27 31 29 29 30 31 32 33 33 33 34 35 36 37 37 38 38 39
6 5 5 6 5 5 5 4 4 4 4 5 6 7 7 8 8 8 8 9 9 9 9 10 10 10 11 11 11 11 11 11 11 12 12 12 13 13 12 11 11 12 12 12 12 12 13 13 13 13 14 14 15 15 16 17 17 18 19 19 20 20 19 21 22 21 23 25 22 22 30 36 33 31 32 32 32 33 34 34 34 35 36 37 38 38 39 39
4 4 4 5 7 7 6 5 6 6 5 5 6 7 7 8 8 8 9 9 9 9 10 10 10 11 11 11 11 12 12 12 12 12 13 13 13 13 12 11 12 13 13 12 13 13 14 15 14 13 14 15 16 18 18 17 18 20 21 21 21 21 21 21 21 22 25 26 26 28 34 39 39 36 35 34 33 33 33 34 34 35 35 37 38 39 39 39
4 4 3 4 5 6 7 6 6 6 5 5 6 6 7 8 8 9 9 9 9 10 10 11 11 11 11 11 12 12 12 13 13 13 13 13 13 14 13 12 13 13 13 13 14 14 15 16 16 15 17 18 19 20 19 19 20 22 23 24 23 23 22 22 25 27 26 26 31 34 33 36 40 39 36 35 34 33 33 34 34 35 36 37 38 39 39 39
4 4 3 4 4 4 5 5 6 7 6 6 7 7 7 8 8 8 9 9 10 10 10 11 11 11 10 11 11 12 13 14 14 13 13 14 14 15 15 14 14 14 13 14 15 14 14 17 17 16 18 20 21 22 21 21 22 23 24 26 26 24 23 25 29 30 27 28 35 37 34 34 38 38 35 34 33 33 33 34 35 36 37 38 38 38 39 40
5 5 4 5 5 4 5 5 6 7 7 7 7 7 7 7 7 8 9 10 11 11 11 11 12 11 11 11 12 12 13 14 14 14 14 14 14 15 15 15 14 14 14 14 16 15 15 17 18 17 20 21 21 22 22 22 23 25 26 27 26 25 25 27 31 31 30 33 37 38 38 37 36 36 35 34 33 34 35 35 36 37 37 38 38 38 39 40
5 5 5 6 6 6 6 5 6 7 7 7 7 7 7 6 7 8 9 9 10 11 11 11 11 11 11 11 12 12 13 12 14 15 14 14 15 15 15 15 15 15 15 15 16 16 17 18 18 18 21 22 21 22 22 22 23 26 28 28 27 26 27 28 29 30 30 33 35 36 37 37 35 33 34 35 35 35 35 35 36 37 37 37 38 38 39 40
5 5 6 7 6 5 5 5 5 6 6 7 7 7 7 6 6 8 9 9 9 10 10 11 11 12 13 12 12 13 14 13 14 15 14 14 16 15 15 16 15 15 16 16 17 17 17 19 20 20 21 22 21 22 23 24 24 27 30 29 26 24 24 25 26 26 26 29 31 32 33 34 34 33 32 33 34 34 33 34 35 36 37 37 38 38 39 40
6 6 6 6 5 4 4 5 6 6 6 6 6 6 7 7 7 7 9 10 10 10 11 10 11 12 13 13 13 14 15 15 15 16 16 16 17 16 17 17 16 15 16 17 18 18 18 19 20 20 21 23 23 23 25 26 26 27 26 25 23 23 24 26 27 25 24 26 28 30 31 33 33 32 32 33 32 32 33 34 35 37 38 37 38 39 40 40
Wind_Direction
95 91 87 82 78 77 75 71 65 58 55 51 44 259 238 239 250 260 265 266 261 238 239 250 251 253 256 241 223 218 218 216 236 266 258 267 275 276 277 274 272 271 266 262 257 256 257 259 262 263 255 252 256 256 255 254 252 253 255 256 258 256 258 265 262 256 255 257 262 267 264 255 263 271 270 276 287 282 281 284 278 276 276 275 272 269 267 265
98 92 88 81 76 76 72 67 60 49 41 29 19 349 270 255 258 264 269 274 280 278 276 274 264 255 249 236 224 225 231 237 261 285 282 283 289 288 283 280 279 275 272 269 264 261 259 261 264 263 258 256 260 259 257 256 254 258 260 262 262 258 265 271 263 259 258 254 258 269 270 272 273 273 273 274 282 284 282 283 279 278 279 276 274 271 268 267
99 90 83 76 69 68 63 56 45 31 20 9 360 349 329 303 283 277 277 277 279 276 282 293 289 279 262 238 227 228 235 253 281 291 291 292 296 295 290 286 282 279 278 272 268 265 260 261 263 263 261 260 262 261 259 260 260 263 263 266 264 258 268 276 264 256 251 244 255 269 272 282 281 276 273 270 279 287 282 280 279 279 278 275 275 272 270 270
96 84 73 64 58 52 43 31 19 6 358 349 339 332 320 309 298 291 289 288 288 286 288 294 295 295 280 253 237 233 242 270 286 288 293 296 297 297 294 287 281 278 277 273 269 266 264 264 265 266 261 261 266 263 261 263 264 268 268 265 262 257 267 275 262 252 253 251 258 265 271 281 282 279 274 267 275 282 279 278 276 274 274 273 273 274 273 273
90 74 63 50 38 29 18 8 359 349 341 334 326 318 310 304 297 290 289 286 287 288 292 295 295 295 285 262 240 239 263 278 285 291 296 299 299 298 296 289 281 278 277 273 269 268 268 265 267 270 264 263 267 265 264 267 265 271 275 269 265 261 263 268 264 261 262 262 266 272 277 274 275 284 282 272 271 273 273 274 272 272 272 272 273 274 275 276
80 59 44 27 15 6 358 355 349 340 332 327 321 313 306 297 289 285 280 277 279 280 285 288 288 293 283 258 239 251 268 273 289 299 300 302 303 301 297 289 283 279 276 272 270 270 270 268 267 267 268 268 266 267 270 271 267 268 276 280 276 268 261 264 268 269 266 269 276 275 274 271 274 285 285 280 273 270 270 271 271 272 272 272 273 274 275 277
68 43 25 9 0 354 352 350 343 338 332 329 326 321 313 296 280 272 268 268 272 274 280 278 280 284 256 222 240 286 298 292 301 304 304 306 304 302 296 288 287 282 276 274 273 271 270 271 265 263 268 269 266 268 273 276 274 268 273 280 282 276 268 267 268 269 269 275 276 271 273 277 275 274 278 280 274 270 270 271 271 272 272 273 274 276 277 277
52 29 12 360 355 353 352 345 340 339 334 334 337 337 331 309 278 260 262 266 270 276 277 272 272 257 217 211 267 313 323 308 308 310 309 308 303 303 297 290 290 284 279 280 275 267 269 272 264 265 269 268 266 265 266 276 281 274 269 272 276 277 270 266 267 268 274 275 271 276 282 280 274 270 275 276 272 270 270 271 272 271 273 275 276 278 278 278
31 12 2 355 353 353 348 340 339 339 336 338 343 345 342 325 287 257 257 265 275 283 281 276 266 246 235 258 282 303 308 304 309 313 312 309 303 303 299 293 290 283 281 284 280 271 270 271 267 267 266 266 269 267 267 272 275 270 266 267 267 267 264 262 271 273 274 271 270 280 280 274 273 275 277 275 271 271 271 272 273 273 275 277 279 279 279 280
8 356 354 352 350 348 343 340 340 338 338 339 342 347 346 339 302 238 233 250 287 298 295 285 263 256 262 280 297 301 302 306 312 313 313 310 302 302 302 297 292 286 283 286 286 281 273 268 268 267 264 267 274 277 276 268 265 260 257 267 266 265 269 271 272 272 276 277 273 271 272 275 277 277 276 272 270 271 272 274 276 277 278 279 279 280 280 281
346 347 347 346 346 344 341 342 343 342 340 341 345 352 355 358 10 180 181 195 4 3 354 351 297 307 312 313 323 310 308 312 313 314 315 310 302 299 301 298 295 289 285 288 287 281 275 268 266 267 270 273 275 285 284 262 248 244 249 273 276 271 273 273 270 270 279 279 273 268 273 283 286 280 275 270 269 272 272 275 278 278 279 279 279 280 280 281
335 339 340 341 342 343 344 346 347 346 344 345 349 358 8 15 51 143 174 213 357 12 2 347 317 311 329 343 337 315 313 315 314 318 318 311 302 297 299 296 293 290 286 289 288 283 279 273 270 272 274 271 271 280 275 252 240 253 263 270 270 271 272 272 270 271 277 272 270 279 281 286 289 282 274 271 270 272 274 276 278 278 279 279 280 280 281 281
327 333 334 337 342 346 349 351 352 352 351 355 357 3 13 23 45 96 240 258 290 323 316 305 301 298 314 330 324 318 319 319 319 321 319 313 303 298 303 299 293 295 292 291 292 288 283 278 274 272 273 273 274 271 259 253 260 271 276 270 266 272 277 278 275 272 276 272 272 280 282 282 283 277 272 272 272 273 276 277 277 278 279 279 280 280 281 281
324 328 332 339 347 352 355 357 359 0 3 9 12 12 10 19 35 11 279 269 287 313 313 314 315 310 323 319 315 327 326 321 326 328 324 317 308 304 307 307 303 303 300 299 299 294 284 278 276 275 278 279 270 262 261 270 276 275 275 276 274 273 275 280 281 276 276 277 277 277 279 280 277 274 272 272 273 274 275 275 276 278 279 279 280 280 282 283
323 326 334 342 350 354 357 2 5 9 15 18 18 18 14 18 15 353 329 286 303 319 322 329 323 316 336 326 316 329 331 328 335 335 330 323 315 313 313 312 310 307 306 307 303 298 290 285 287 286 284 280 269 266 275 278 279 277 273 276 279 273 271 277 283 282 277 278 284 281 278 281 277 273 271 271 273 274 273 273 275 277 278 279 280 281 282 283
323 327 336 343 347 349 353 4 13 18 19 18 22 25 26 24 19 34 29 343 327 320 328 338 331 326 333 319 316 331 337 335 334 331 329 328 322 317 316 314 313 310 310 312 307 301 300 299 297 294 289 285 281 277 279 280 279 279 275 273 275 271 272 276 279 287 284 278 287 288 278 280 280 272 269 271 271 271 272 272 274 276 277 277 278 280 280 281
323 329 334 337 339 341 347 1 11 18 20 21 26 28 33 31 21 34 24 11 4 343 342 341 332 335 333 323 323 332 336 333 330 330 330 331 330 325 322 318 316 313 309 315 316 308 305 303 293 291 293 287 284 281 278 277 274 275 277 277 276 272 273 276 276 287 292 282 286 291 283 281 281 273 269 270 269 270 270 270 273 275 275 276 277 278 279 280
325 330 331 331 331 331 335 347 357 5 12 18 27 36 46 45 39 34 7 351 349 343 344 342 336 330 329 334 330 325 329 332 331 334 334 334 339 339 337 325 315 312 311 313 317 314 306 303 294 288 292 289 286 283 273 272 270 270 274 275 275 275 275 276 276 283 291 287 287 290 286 283 281 275 272 270 269 270 270 269 273 274 274 275 277 278 279 280
330 332 330 329 330 328 322 322 338 346 356 12 31 43 44 41 40 33 23 12 356 342 331 336 343 327 318 329 327 320 331 340 340 340 341 339 338 339 341 332 320 316 313 309 312 314 307 303 302 294 293 290 284 278 271 273 272 269 273 275 274 275 277 278 278 282 286 287 289 289 284 279 277 276 273 269 269 271 272 271 273 275 275 276 278 279 280 281
333 331 328 329 331 329 319 302 311 341 16 36 41 33 24 27 21 8 16 25 14 1 347 339 347 344 331 333 333 331 338 352 355 350 343 334 326 330 333 326 324 327 318 305 304 310 309 307 304 295 290 289 285 278 276 281 280 278 282 284 281 276 278 279 277 283 287 286 289 289 283 276 275 276 273 270 271 274 273 272 273 275 276 276 277 279 280 281
331 329 328 330 329 327 315 280 260 297 12 24 17 4 344 358 5 348 7 18 5 7 12 356 350 351 344 344 347 343 344 358 0 353 343 329 319 323 324 322 323 324 316 305 304 311 314 311 303 296 290 291 294 287 282 289 291 290 287 286 288 281 279 281 279 285 290 287 288 288 283 278 277 276 274 271 273 275 272 271 272 274 276 277 277 279 280 283
326 327 330 329 324 322 311 277 247 263 304 319 330 336 322 328 2 6 13 2 351 0 10 4 2 359 351 354 356 350 350 353 349 346 343 336 330 324 322 328 326 316 314 313 313 316 318 310 302 302 297 295 304 301 295 298 296 293 290 287 289 285 282 285 285 291 293 288 285 285 282 281 279 277 275 271 272 276 273 271 273 274 276 277 277 279 281 283
325 324 325 322 317 317 312 289 260 281 306 307 316 327 323 345 22 24 18 2 352 357 5 9 13 7 356 353 353 355 1 350 335 334 340 342 341 335 332 334 330 321 322 323 317 313 312 307 305 309 306 301 307 308 302 301 298 294 292 291 288 285 285 285 286 292 294 290 286 283 283 283 281 279 277 273 273 278 277 275 275 276 277 277 279 281 282 283
329 322 319 316 313 307 298 313 307 312 318 310 320 316 262 350 347 16 13 5 3 3 7 10 11 7 356 345 343 350 358 350 335 333 338 341 336 336 335 330 332 328 324 328 329 321 310 305 308 315 315 305 304 309 306 301 299 297 293 291 288 286 285 287 289 292 295 296 290 287 291 289 282 278 278 278 277 279 279 278 277 276 277 280 283 284 285 285
328 322 318 314 305 283 278 328 323 314 320 320 310 267 250 296 308 350 4 8 8 1 1 1 0 358 349 343 340 338 345 347 343 337 336 338 332 329 330 327 329 321 313 324 334 325 315 313 315 318 318 314 309 309 305 298 297 299 294 289 288 288 290 294 297 298 301 299 292 293 298 294 289 280 278 282 282 279 279 280 278 275 276 280 283 284 286 287
326 323 320 311 290 260 282 317 310 307 322 309 260 251 276 295 316 345 358 10 3 348 351 350 349 350 344 343 339 333 337 337 336 339 340 338 331 329 329 325 326 319 309 318 325 318 317 321 321 319 318 320 319 311 304 300 303 304 298 296 299 298 295 295 297 301 301 296 295 298 296 293 295 290 284 285 284 282 282 283 281 278 278 278 280 283 286 288
325 324 319 310 279 245 278 299 288 293 312 288 243 237 263 318 353 351 353 3 347 335 345 343 341 347 346 345 344 338 332 326 328 341 345 339 330 331 332 325 326 323 315 319 323 317 319 325 326 325 324 325 324 317 309 310 313 309 304 305 305 302 296 293 297 300 297 297 302 300 294 296 297 295 297 295 289 289 288 286 285 282 280 279 279 282 284 286
331 330 324 317 292 258 280 292 279 292 304 265 220 203 185 47 3 351 7 5 337 333 342 339 341 347 345 349 355 352 335 329 332 335 339 341 336 338 337 327 326 325 321 322 320 316 320 326 327 328 330 327 321 314 311 317 320 311 307 306 303 302 301 299 302 303 302 305 304 295 296 303 297 296 307 306 297 295 291 288 287 283 280 279 279 281 283 285
348 349 338 316 306 294 291 297 290 298 302 221 184 170 146 51 9 357 8 351 333 338 339 339 341 341 341 347 352 351 342 339 337 329 334 344 344 346 338 327 332 334 332 331 320 315 321 323 322 330 332 323 315 312 311 320 322 313 311 317 320 318 314 311 306 305 309 308 299 292 292 302 301 300 306 308 302 297 292 292 291 287 283 281 280 281 283 285
10 10 359 316 300 307 300 314 315 304 263 164 167 157 120 36 14 5 351 331 332 336 336 342 340 337 343 346 343 345 345 341 338 336 339 343 345 350 341 330 338 340 337 340 334 323 323 323 323 332 329 317 313 315 315 320 323 321 320 325 328 324 318 316 311 311 314 307 298 292 290 300 306 303 301 301 299 296 294 298 299 294 290 286 284 284 284 286
17 14 7 342 305 306 312 336 355 121 123 144 155 142 92 20 9 13 345 328 332 335 339 343 339 341 347 346 339 340 342 340 340 343 343 340 342 346 342 335 337 339 336 338 336 331 334 334 328 325 325 325 324 322 322 325 330 332 325 321 319 317 319 318 316 317 311 303 299 297 300 301 298 299 301 298 297 296 295 298 300 299 296 293 290 289 288 288
17 17 20 26 30 37 59 68 100 116 120 131 138 123 70 7 352 352 336 333 335 336 339 337 336 342 344 342 341 338 338 340 342 346 343 340 343 341 339 334 331 335 334 330 332 336 336 331 326 324 326 334 333 324 324 329 333 335 331 327 318 319 322 314 310 311 301 299 300 300 306 301 290 293 298 296 294 292 290 293 298 299 299 298 297 295 293 293
22 29 38 46 59 69 81 93 102 114 121 122 119 82 42 15 346 338 335 338 340 337 340 338 336 342 343 344 342 337 340 340 341 345 342 341 345 338 336 335 332 332 329 327 332 335 331 324 328 330 327 334 337 330 325 324 329 331 329 328 320 323 325 309 306 310 302 300 301 300 304 302 297 299 296 293 293 292 291 295 298 299 299 301 302 301 300 297
40 49 51 54 61 68 85 96 104 115 119 111 93 35 17 359 338 344 341 336 340 340 342 341 339 343 347 347 340 337 344 342 341 346 343 343 345 338 335 337 339 338 334 333 330 328 328 322 323 326 323 330 334 329 323 322 325 323 318 323 318 311 310 302 301 303 302 303 302 300 301 297 299 304 301 298 299 297 296 299 301 301 300 302 304 304 302 300
57 57 56 57 58 64 84 98 109 118 115 90 49 23 10 343 334 348 343 337 342 342 339 342 347 349 345 343 341 342 344 340 343 348 345 343 341 338 338 335 336 339 336 331 324 324 325 313 312 318 318 325 327 320 323 327 323 317 317 323 317 306 305 305 300 298 303 309 305 298 294 291 296 301 302 302 301 297 297 301 303 302 301 303 304 302 301 301
67 57 54 53 51 56 78 102 116 118 108 67 35 14 355 343 345 349 346 346 348 345 342 343 351 353 345 340 344 346 344 342 345 347 344 342 338 336 336 332 332 336 334 328 322 324 325 315 314 319 316 319 319 313 317 320 314 315 317 314 309 308 310 308 305 307 311 307 303 300 295 298 303 303 304 307 302 299 301 303 303 302 303 304 302 301 301 301
70 61 54 47 42 47 73 109 122 116 82 50 37 10 348 353 358 353 351 352 350 353 356 349 347 351 347 344 344 343 345 344 346 347 343 340 338 336 335 331 331 334 330 326 322 320 321 316 313 315 314 313 313 312 315 315 311 312 310 306 308 313 314 310 308 313 315 304 302 302 297 300 304 303 307 310 303 300 302 303 303 303 303 303 301 301 302 302
69 62 52 38 32 39 70 106 111 100 62 43 34 16 5 3 0 355 355 356 354 358 4 356 350 351 350 350 346 343 347 347 346 348 345 340 339 337 335 331 330 332 328 326 326 324 323 319 314 312 311 313 316 315 313 314 312 309 305 306 311 309 307 308 307 308 308 305 305 305 302 301 297 296 303 304 298 299 301 304 307 305 303 302 301 302 303 303
56 52 44 26 24 42 69 95 98 77 56 43 28 13 11 6 360 358 358 360 360 3 4 356 355 358 356 356 350 346 351 351 348 350 347 343 340 338 336 332 329 330 327 325 324 322 323 322 315 312 311 312 317 314 308 310 312 311 309 309 310 306 302 303 303 302 303 304 305 308 310 306 298 297 300 298 297 300 301 304 307 304 303 303 303 303 304 304
48 57 45 19 26 57 70 81 77 57 46 36 22 16 14 10 5 2 1 1 1 3 2 358 1 2 359 357 355 353 355 355 353 353 349 346 344 340 338 336 331 329 329 330 327 323 323 320 312 313 315 312 311 308 304 304 306 307 307 305 305 306 304 302 301 299 300 302 304 307 307 305 303 303 300 298 301 301 300 304 306 304 305 305 304 304 305 305
67 73 54 27 41 80 78 68 55 45 42 32 27 24 17 16 15 8 5 5 5 4 5 6 7 4 2 1 358 356 358 358 358 357 353 351 352 348 344 342 338 334 335 335 331 325 322 318 311 312 313 308 304 305 305 303 303 303 301 299 300 302 303 304 304 300 298 298 299 302 303 303 306 305 300 301 303 301 300 302 304 304 305 305 305 305 305 306
81 87 68 44 61 86 79 61 37 33 43 35 30 30 23 24 23 13 9 10 8 7 9 11 8 6 5 3 0 0 1 0 360 0 357 355 355 352 350 351 347 343 343 337 330 326 326 325 319 312 310 307 305 307 307 303 303 303 301 300 302 302 300 299 301 302 301 297 297 300 301 302 305 303 301 303 303 301 301 302 303 304 305 305 306 306 306 306
89 95 78 60 74 84 74 55 28 30 39 34 32 32 27 27 24 17 14 11 8 9 10 8 6 6 5 2 4 4 2 0 1 1 359 356 354 352 352 353 349 348 348 342 335 333 334 334 326 317 316 316 313 313 312 309 307 304 302 302 301 300 300 297 296 300 301 296 296 300 298 298 304 305 304 305 304 302 303 302 303 304 305 306 305 306 307 307
92 90 73 59 68 79 71 62 48 41 39 39 38 31 26 27 25 20 16 12 10 12 12 8 5 6 6 6 8 4 1 2 0 358 358 356 352 352 353 349 345 343 342 340 339 338 334 333 332 329 328 326 324 324 320 315 310 303 302 302 300 301 304 303 299 299 299 293 290 293 294 296 303 307 306 305 305 304 302 302 303 303 304 305 305 307 308 308
93 84 69 55 58 70 74 76 75 61 48 48 44 29 25 27 23 20 19 16 12 12 12 8 7 8 8 8 8 4 1 1 357 356 358 354 349 350 349 344 341 339 336 335 338 337 332 330 330 330 327 324 322 321 317 314 311 306 303 300 298 299 300 300 301 299 297 294 288 287 292 298 303 306 305 304 304 303 303 302 302 302 302 304 306 307 308 308
98 86 71 57 57 64 68 70 71 65 58 54 42 28 28 27 19 17 21 17 13 13 12 9 7 9 9 8 6 1 357 358 358 356 355 350 347 347 346 342 339 336 335 336 336 337 334 328 323 318 313 311 311 311 313 315 310 305 303 300 298 299 298 300 300 294 293 296 292 287 291 298 303 304 303 303 303 302 303 302 302 302 302 304 306 307 308 309
94 88 82 69 61 60 59 57 59 59 56 53 42 30 31 28 18 17 18 15 13 12 11 9 8 7 5 4 4 359 356 357 356 353 351 347 345 345 344 342 338 333 335 336 333 336 334 326 320 314 308 307 309 310 313 315 308 303 302 300 298 299 299 296 291 290 295 297 294 292 293 295 300 303 303 303 303 303 303 303 302 303 304 305 306 308 309 309
90 95 90 80 75 69 60 57 63 62 52 45 40 33 30 27 22 20 17 14 14 12 9 7 4 2 0 1 3 359 355 355 353 350 350 347 346 347 344 341 338 333 336 336 332 334 332 323 320 319 313 311 312 311 311 310 306 304 302 300 299 298 295 290 286 289 292 289 291 296 296 294 299 303 303 303 303 304 304 304 304 305 305 306 306 308 309 310
98 97 82 73 80 83 72 69 74 67 49 40 37 31 30 29 21 16 16 16 12 8 9 5 356 356 358 359 2 358 352 353 350 346 347 347 344 345 343 340 339 337 337 336 332 330 328 322 323 324 319 315 312 311 312 310 308 307 304 301 300 297 292 289 290 292 290 287 290 295 296 296 301 303 303 304 304 304 305 305 304 304 305 305 306 308 310 309
108 104 92 82 77 75 70 65 66 59 41 34 33 26 27 29 19 11 13 16 10 5 8 4 355 357 359 357 359 353 345 349 348 342 346 347 342 341 339 337 340 339 336 335 332 330 326 323 325 328 323 318 317 319 318 314 311 309 306 304 302 300 297 296 296 297 295 291 293 295 296 299 303 304 304 305 304 304 304 304 304 304 305 306 307 309 309 309
107 109 107 95 75 58 59 54 51 51 36 27 29 24 19 15 13 14 10 7 7 5 4 2 359 1 2 357 352 343 338 343 342 337 340 342 338 337 336 335 338 338 334 332 332 330 326 322 326 330 324 319 323 325 321 317 314 310 308 306 304 303 304 303 302 302 298 295 297 299 299 301 306 309 308 305 304 305 304 304 305 305 306 306 307 309 309 309
106 105 101 91 71 51 57 50 39 40 30 19 23 21 10 3 6 13 9 1 359 360 358 360 3 2 359 353 345 340 340 341 339 337 338 337 335 333 331 330 331 332 331 330 330 329 327 324 325 327 322 319 322 323 321 321 320 315 313 311 309 308 307 307 307 305 301 299 301 301 301 303 309 311 309 307 306 305 304 305 306 306 307 308 308 309 309 309